Starlink 11145

operational
NORAD ID: 59945 Int'l Des: 2024-107 Owner: SPXS Country: US Constellation: starlink
LEOCIRCULAR

Über Starlink 11145

Beschreibung wird geladen...

Live-Position

3D-Globus wird geladen...

Nächste Überflüge

Höhenverlauf

Altitude vs Time

uPlot chart will show altitude changes over time

Zweizeiliger Elementsatz

1 59945U 24107A 25308.27332931 -.00000933 00000-0 -28430-5 0 9993
2 59945 53.1567 149.8365 0001069 72.3197 287.7937 15.69717463 82442
Epoch: 4. Nov. 2025 • Age: 11 hours

Aktueller Status

Höhe 364.6 km
Geschwindigkeit 7.70 km/s
Subsatellitenpunkt 49.27°N, 100.08°W
Startdatum 5. Juni 2024
Alter 1.4 years
Typ internet

Technische Details

Klassifizierung Payload
Masse 960.00 kg
Trockenmasse 910.00 kg
Gesamtmasse 960.00 kg
Länge 0.30 m
Durchmesser 4.10 m
Spannweite 29.00 m
Form Box + pan
Hersteller SPXS
Bus-Typ Starlink V2MD
Phasenstatus In Orbit
Besitzer/Staat SPXS/US

Große Konstellationen

Loading constellations...